Volver al catálogo

STARLINK-37801

ActivoComunicacionesSSO
NORAD 69435·PAYLOAD·🇺🇸 United States

Lanzado Jun 7, 2026 desde Vandenberg Space Force Base

Loading…

Próximos Pases (próximas 24 horas)

TLE

ActualizadoSource: CelesTrak SupGP

Época: Sep 15, 2026, 03:35 UTC

1 69435C 26126R   26258.14979167 -.00009519  00000+0 -29543-3 0  2580
2 69435  97.2849 119.4586 0001932  95.0676 292.5736 15.33449348    19

Sigue STARLINK-37801 en tiempo real con AllMySat

Download on the App Store